When you browse on this site, cookies collect data to enhance your experience and personalize the content and advertising you see.
Visit our Privacy Policy to learn more. By continuing to use the site, you agree to this use of cookies and data.
  • In Latvia
  • List of Countries
  • For 7 days
  • Water Temperature
  • Satellite Maps
  • Weather Map
  • Weather Widgets
  • user-avatar
    Login

    Hourly Weather Saurimo

    Today, 20 November, Tuesday

    Time Temperature Precipitation Wind Pressure Humidity
    00:00 +21°C° 0.1 mm 1 mps 669 mmHg 91%
    01:00 +20°C° 0 mm 1 mps 669 mmHg 91%
    02:00 +20°C° 0 mm 1 mps 669 mmHg 93%
    03:00 +20°C° 0 mm 1 mps 669 mmHg 94%
    04:00 +19°C° 0 mm 1 mps 669 mmHg 95%
    05:00 +21°C° 0 mm 1 mps 670 mmHg 89%
    06:00 +21°C° 0 mm 0 mps 671 mmHg 83%
    07:00 +23°C° 0 mm 0 mps 672 mmHg 73%
    08:00 +28°C° 0 mm 1 mps 672 mmHg 62%
    09:00 +30°C° 0 mm 1 mps 672 mmHg 51%
    10:00 +33°C° 0 mm 1 mps 672 mmHg 39%
    11:00 +33°C° 0 mm 1 mps 672 mmHg 38%
    12:00 +34°C° 0 mm 1 mps 671 mmHg 37%
    13:00 +34°C° 0 mm 1 mps 671 mmHg 35%
    14:00 +33°C° 0 mm 1 mps 670 mmHg 38%
    15:00 +32°C° 0 mm 1 mps 670 mmHg 42%
    16:00 +31°C° 0 mm 1 mps 669 mmHg 45%
    17:00 +29°C° 0.3 mm 1 mps 669 mmHg 52%
    18:00 +27°C° 0.3 mm 1 mps 669 mmHg 60%
    19:00 +25°C° 0.3 mm 1 mps 669 mmHg 68%
    20:00 +24°C° 0.3 mm 1 mps 670 mmHg 75%
    21:00 +23°C° 0.3 mm 1 mps 670 mmHg 82%
    22:00 +22°C° 0.3 mm 1 mps 670 mmHg 89%
    23:00 +21°C° 0.4 mm 2 mps 670 mmHg 90%

    Tomorrow, 21 November, Wednesday

    Time Temperature Precipitation Wind Pressure Humidity
    00:00 +21°C° 0.4 mm 2 mps 670 mmHg 92%
    01:00 +20°C° 0.4 mm 2 mps 669 mmHg 94%
    02:00 +20°C° 0.3 mm 2 mps 669 mmHg 95%
    03:00 +21°C° 0.3 mm 1 mps 669 mmHg 96%
    04:00 +20°C° 0.3 mm 1 mps 669 mmHg 97%
    05:00 +20°C° 0 mm 2 mps 670 mmHg 94%
    06:00 +21°C° 0 mm 2 mps 670 mmHg 91%
    07:00 +23°C° 0 mm 2 mps 670 mmHg 89%
    08:00 +26°C° 0 mm 2 mps 671 mmHg 74%
    09:00 +29°C° 0 mm 2 mps 671 mmHg 60%
    10:00 +31°C° 0 mm 2 mps 672 mmHg 45%
    11:00 +34°C° 0 mm 2 mps 671 mmHg 41%
    12:00 +35°C° 0 mm 2 mps 671 mmHg 37%
    13:00 +36°C° 0 mm 2 mps 670 mmHg 33%
    14:00 +33°C° 0 mm 1 mps 670 mmHg 39%
    15:00 +31°C° 0 mm 1 mps 669 mmHg 46%
    16:00 +29°C° 0 mm 1 mps 668 mmHg 53%
    17:00 +27°C° 1.7 mm 1 mps 668 mmHg 64%
    18:00 +25°C° 1.7 mm 2 mps 669 mmHg 75%
    19:00 +23°C° 1.7 mm 2 mps 669 mmHg 86%
    20:00 +23°C° 1.5 mm 2 mps 669 mmHg 88%
    21:00 +23°C° 1.5 mm 2 mps 670 mmHg 90%
    22:00 +22°C° 1.5 mm 1 mps 670 mmHg 92%
    23:00 +21°C° 2 mm 2 mps 670 mmHg 93%

    Day after tomorrow, 22 November, Thursday

    Time Temperature Precipitation Wind Pressure Humidity
    00:00 +21°C° 2 mm 2 mps 670 mmHg 94%
    01:00 +21°C° 2 mm 2 mps 670 mmHg 95%
    02:00 +20°C° 1 mm 2 mps 670 mmHg 96%
    03:00 +20°C° 1 mm 2 mps 670 mmHg 97%
    04:00 +21°C° 1 mm 1 mps 670 mmHg 98%
    05:00 +21°C° 0.2 mm 1 mps 670 mmHg 97%
    06:00 +22°C° 0.2 mm 1 mps 671 mmHg 96%
    07:00 +22°C° 0.2 mm 1 mps 671 mmHg 95%
    08:00 +23°C° 0.7 mm 1 mps 671 mmHg 89%
    09:00 +25°C° 0.7 mm 2 mps 672 mmHg 82%
    10:00 +26°C° 0.7 mm 2 mps 672 mmHg 76%
    11:00 +27°C° 0.5 mm 2 mps 672 mmHg 71%
    12:00 +28°C° 0.5 mm 2 mps 671 mmHg 65%
    13:00 +29°C° 0.5 mm 1 mps 671 mmHg 59%
    14:00 +28°C° 1.1 mm 1 mps 670 mmHg 68%
    15:00 +27°C° 1.1 mm 1 mps 669 mmHg 76%
    16:00 +25°C° 1.1 mm 1 mps 669 mmHg 85%
    17:00 +24°C° 0.1 mm 1 mps 669 mmHg 88%
    18:00 +23°C° 0.1 mm 1 mps 669 mmHg 90%
    19:00 +22°C° 0.1 mm 1 mps 670 mmHg 93%
    20:00 +22°C° 0 mm 1 mps 670 mmHg 94%
    21:00 +21°C° 0 mm 1 mps 670 mmHg 94%
    22:00 +21°C° 0 mm 1 mps 670 mmHg 95%
    23:00 +21°C° 0 mm 1 mps 670 mmHg 95%

    23 November, Friday

    Time Temperature Precipitation Wind Pressure Humidity
    00:00 +20°C° 0 mm 1 mps 669 mmHg 95%
    01:00 +20°C° 0 mm 1 mps 669 mmHg 95%
    02:00 +20°C° 0 mm 1 mps 669 mmHg 96%
    03:00 +20°C° 0 mm 1 mps 669 mmHg 96%
    04:00 +19°C° 0 mm 1 mps 669 mmHg 97%
    05:00 +20°C° 0 mm 1 mps 670 mmHg 93%
    06:00 +21°C° 0 mm 1 mps 670 mmHg 90%
    07:00 +22°C° 0 mm 1 mps 671 mmHg 87%
    08:00 +25°C° 0.2 mm 1 mps 671 mmHg 79%
    09:00 +27°C° 0.2 mm 1 mps 672 mmHg 72%
    10:00 +29°C° 0.2 mm 1 mps 672 mmHg 64%
    11:00 +28°C° 1.7 mm 1 mps 671 mmHg 68%
    12:00 +28°C° 1.7 mm 1 mps 670 mmHg 72%
    13:00 +28°C° 1.7 mm 1 mps 670 mmHg 75%
    14:00 +27°C° 1.9 mm 1 mps 669 mmHg 79%
    15:00 +26°C° 1.9 mm 1 mps 669 mmHg 83%
    16:00 +25°C° 1.9 mm 1 mps 668 mmHg 87%
    17:00 +24°C° 0.2 mm 1 mps 669 mmHg 89%
    18:00 +23°C° 0.2 mm 1 mps 669 mmHg 91%
    19:00 +22°C° 0.2 mm 1 mps 669 mmHg 93%
    20:00 +21°C° 0 mm 1 mps 670 mmHg 93%
    21:00 +21°C° 0 mm 1 mps 670 mmHg 93%
    22:00 +21°C° 0 mm 1 mps 670 mmHg 92%
    23:00 +21°C° 0 mm 1 mps 669 mmHg 93%

    24 November, Saturday

    Time Temperature Precipitation Wind Pressure Humidity
    00:00 +20°C° 0 mm 1 mps 669 mmHg 94%
    01:00 +20°C° 0 mm 1 mps 669 mmHg 94%
    02:00 +18°C° 0 mm 0 mps 669 mmHg 95%
    03:00 +18°C° 0 mm 0 mps 669 mmHg 95%
    04:00 +17°C° 0 mm 0 mps 669 mmHg 95%
    05:00 +18°C° 0 mm 0 mps 670 mmHg 92%
    06:00 +19°C° 0 mm 0 mps 670 mmHg 90%
    07:00 +20°C° 0 mm 0 mps 671 mmHg 87%
    08:00 +23°C° 0.2 mm 0 mps 671 mmHg 78%
    09:00 +27°C° 0.2 mm 1 mps 672 mmHg 68%
    10:00 +29°C° 0.2 mm 1 mps 672 mmHg 59%
    11:00 +29°C° 0.7 mm 1 mps 671 mmHg 61%
    12:00 +29°C° 0.7 mm 1 mps 670 mmHg 63%
    13:00 +29°C° 0.7 mm 1 mps 669 mmHg 65%
    14:00 +28°C° 0.9 mm 1 mps 669 mmHg 69%
    15:00 +28°C° 0.9 mm 1 mps 669 mmHg 73%
    16:00 +27°C° 0.9 mm 2 mps 669 mmHg 77%
    17:00 +25°C° 0.1 mm 2 mps 669 mmHg 82%
    18:00 +24°C° 0.1 mm 2 mps 669 mmHg 87%
    19:00 +21°C° 0.1 mm 2 mps 670 mmHg 92%
    20:00 +22°C° 0.1 mm 1 mps 670 mmHg 93%
    21:00 +21°C° 0.1 mm 1 mps 670 mmHg 94%
    22:00 +21°C° 0.1 mm 1 mps 670 mmHg 95%
    23:00 +21°C° 0 mm 1 mps 669 mmHg 94%

    25 November, Sunday

    Time Temperature Precipitation Wind Pressure Humidity
    00:00 +20°C° 0 mm 1 mps 669 mmHg 94%
    01:00 +20°C° 0 mm 1 mps 669 mmHg 94%
    02:00 +20°C° 0 mm 1 mps 669 mmHg 94%
    03:00 +20°C° 0 mm 1 mps 669 mmHg 94%
    04:00 +19°C° 0 mm 1 mps 669 mmHg 94%
    05:00 +20°C° 0 mm 1 mps 669 mmHg 91%
    06:00 +19°C° 0 mm 0 mps 670 mmHg 89%
    07:00 +20°C° 0 mm 0 mps 671 mmHg 86%
    08:00 +21°C° 0.7 mm 0 mps 671 mmHg 84%
    09:00 +23°C° 0.7 mm 0 mps 671 mmHg 83%
    10:00 +26°C° 0.7 mm 1 mps 671 mmHg 81%
    11:00 +27°C° 0.8 mm 1 mps 671 mmHg 77%
    12:00 +27°C° 0.8 mm 1 mps 670 mmHg 73%
    13:00 +28°C° 0.8 mm 1 mps 669 mmHg 69%
    14:00 +27°C° 0.3 mm 1 mps 669 mmHg 71%
    15:00 +27°C° 0.3 mm 1 mps 669 mmHg 73%
    16:00 +27°C° 0.3 mm 1 mps 668 mmHg 75%
    17:00 +25°C° 0.6 mm 2 mps 669 mmHg 81%
    18:00 +24°C° 0.6 mm 2 mps 669 mmHg 86%
    19:00 +21°C° 0.6 mm 2 mps 669 mmHg 92%
    20:00 +22°C° 1.2 mm 1 mps 670 mmHg 93%
    21:00 +22°C° 1.2 mm 1 mps 670 mmHg 93%
    22:00 +21°C° 1.2 mm 1 mps 670 mmHg 94%
    23:00 +21°C° 0.2 mm 1 mps 669 mmHg 94%
    Show more